Current Weather Conditions by Major Hwy


I-84 West to East [Columbia River Gorge] 900 PM PST SAT FEB 16 2019 ELEVA CITY SKY/WX TMP DP RH WIND PRES REMARKS 10 ASTORIA, OR FAIR 34 33 96 CALM 29.94R 20 KELSO CLOUDY 37 36 96 CALM 29.96R 40 PORTLAND, OR CLOUDY 38 34 85 NE3 29.96R 30 TROUTDALE, OR CLOUDY 38 35 89 NE6 29.96R 240 THE DALLES, OR FAIR 30 28 92 CALM 29.91R FOG 620 HERMISTON, OR CLOUDY 32 29 88 W3 29.89R FOG 1,480 PENDLETON, OR CLOUDY 30 28 92 CALM 29.84R 2,710 LA GRANDE FLURRIES 30 28 92 SW5 29.80S 3,370 BAKER CITY LGT SNOW 30 27 88 W3 29.78R FOG 2,190 ONTARIO MOCLDY 36 33 89 NW5 29.83R
I-90 West to East 900 PM PST SAT FEB 16 2019 ELEVA CITY SKY/WX TMP DP RH WIND PRES REMARKS 30 SEATAC AIRPORT CLOUDY 39 35 86 SE5 29.90R 1,730 ELLENSBURG CLOUDY 30 25 81 N3 29.83R 1,200 MOSES LAKE CLOUDY 31 26 82 SE3 29.88R 1,880 SPOKANE GEIGER CLOUDY 31 28 89 SW7 29.80R FOG
I-82 North West to South East 900 PM PST SAT FEB 16 2019 ELEVA CITY SKY/WX TMP DP RH WIND PRES REMARKS 1,730 ELLENSBURG CLOUDY 30 25 81 N3 29.83R 1,050 YAKIMA TC LGT RAIN 30 28 92 CALM 29.84R FOG 720 360 PASCO CLOUDY 33 31 92 CALM 29.92R 620 HERMISTON, OR CLOUDY 32 29 88 W3 29.89R FOG
Hwy97 North to South 900 PM PST SAT FEB 16 2019 ELEVA CITY SKY/WX TMP DP RH WIND PRES REMARKS 850 OMAK CLOUDY 30 26 85 CALM 29.87R 630 WENATCHEE CLOUDY 29 24 82 CALM 29.87S 1,730 ELLENSBURG CLOUDY 30 25 81 N3 29.83R 1,050 YAKIMA TC LGT RAIN 30 28 92 CALM 29.84R FOG 1,640 GOLDENDALE* FAIR 30 28 92 CALM 29.91R FOG *From Dallesport Airport Elev 240 3,080 REDMOND MOCLDY 31 22 69 SW3 29.83R 4,100 KLAMATH FALLS CLOUDY 27 22 81 W10 29.87S WCI 17
I-5 North to South 900 PM PST SAT FEB 16 2019 ELEVA CITY SKY/WX TMP DP RH WIND PRES REMARKS 150 BELLINGHAM CLOUDY 34 32 92 CALM 29.89R 100 ARLINGTON CLOUDY 36 35 96 SE3 29.91R FOG 610 EVERETT MIX PCPN 37 35 92 SE5 29.90R 30 SEATAC AIRPORT CLOUDY 39 35 86 SE5 29.90R 200 OLYMPIA FAIR 34 31 88 S7 29.92R 20 KELSO CLOUDY 37 36 96 CALM 29.96R 100 VANCOUVER CLOUDY 39 35 86 CALM 29.95R 40 PORTLAND CLOUDY 38 34 85 NE3 29.96R 200 SALEM MOCLDY 38 35 89 S6 29.96R 360 EUGENE LGT RAIN 37 34 89 S8 29.98F 510 ROSEBURG FAIR 35 33 92 S3 30.01F 1,300 MEDFORD CLOUDY 37 31 78 SW7 29.98F
Data from:
http://www.wrh.noaa.gov/sew/get.php?pil=RWR&sid=OR&version=0&format=printer
http://www.wrh.noaa.gov/sew/get.php?pil=RWR&sid=WA&version=0&format=printer

Current Observations

Washington State Current Weather Observations   …  Oregon State Current Weather Observation



48 Hour Forecast

Seattle  …  Vancouver  …  Portland
————————————————————————————————————————
Bend  …  Spokane  …  Richland  …  Pendleton  …  Blue Mountains I-84  …  Yakima
————————————————————————————————————————
Goldendale, Washington Higher Elevations  …  Dallesport Airport - Goldendale  …  Bingen - White Salmon - Hood River  …  Index


Top of Page